IGO845 VOMM-VOPB

Flight info

Callsign IGO845
Flight time 1h 46m
Altitude 39000
Route SIDAT DCT IDASO P761 LEGIN
Aircraft A20N/M-SDE2E3FGHIRWXY/LB1

Departure

Time 2026-04-29 07:07
Airport Chennai International Airport (VOMM)

Arrival

Time 2026-04-29 08:53
Airport Veer Savarkar International Airport / INS Utkrosh (VOPB)
Time Latitude Longitude Altitude Speed Heading
2026-04-29 06:52 12.98501 80.16709 55 ft 0 kts 160°
2026-04-29 06:56 12.98502 80.16709 49 ft 1 kts 160°
2026-04-29 06:56 12.98507 80.16707 51 ft 1 kts 160°
2026-04-29 06:56 12.98512 80.16705 52 ft 1 kts 160°
2026-04-29 06:57 12.98522 80.16701 50 ft 2 kts 160°
2026-04-29 06:57 12.98535 80.16696 48 ft 2 kts 160°
2026-04-29 06:57 12.98550 80.16690 53 ft 2 kts 132°
2026-04-29 06:57 12.98556 80.16676 50 ft 2 kts 72°
2026-04-29 06:58 12.98552 80.16666 53 ft 0 kts 65°
2026-04-29 07:00 12.98553 80.16667 53 ft 1 kts 65°
2026-04-29 07:00 12.98567 80.16702 52 ft 11 kts 68°
2026-04-29 07:00 12.98608 80.16764 55 ft 11 kts 22°
2026-04-29 07:01 12.98693 80.16741 55 ft 15 kts 338°
2026-04-29 07:01 12.98772 80.16773 53 ft 8 kts 83°
2026-04-29 07:01 12.98783 80.16810 51 ft 7 kts 71°
2026-04-29 07:01 12.98808 80.16873 51 ft 12 kts 68°
2026-04-29 07:02 12.98844 80.16966 50 ft 16 kts 68°
2026-04-29 07:02 12.98890 80.17083 51 ft 19 kts 68°
2026-04-29 07:02 12.98940 80.17211 52 ft 20 kts 67°
2026-04-29 07:02 12.99001 80.17347 53 ft 23 kts 68°
2026-04-29 07:03 12.99060 80.17503 53 ft 24 kts 69°
2026-04-29 07:03 12.99111 80.17639 53 ft 12 kts 69°
2026-04-29 07:03 12.99154 80.17694 56 ft 10 kts 22°
2026-04-29 07:03 12.99206 80.17727 49 ft 2 kts 66°
2026-04-29 07:04 12.99220 80.17759 53 ft 8 kts 66°
2026-04-29 07:04 12.99259 80.17850 52 ft 20 kts 67°
2026-04-29 07:04 12.99318 80.18016 53 ft 28 kts 74°
2026-04-29 07:04 12.99361 80.18192 58 ft 20 kts 90°
2026-04-29 07:05 12.99424 80.18314 50 ft 21 kts 33°
2026-04-29 07:05 12.99540 80.18410 52 ft 6 kts 19°
2026-04-29 07:05 12.99573 80.18386 52 ft 7 kts 263°
2026-04-29 07:05 12.99563 80.18353 50 ft 0 kts 247°
2026-04-29 07:06 12.99541 80.18299 53 ft 37 kts 246°
2026-04-29 07:06 12.99358 80.17804 52 ft 108 kts 249°
2026-04-29 07:06 12.99017 80.16913 132 ft 151 kts 248°
2026-04-29 07:07 12.98638 80.15909 631 ft 162 kts 249°
2026-04-29 07:07 12.98190 80.14709 855 ft 192 kts 249°
2026-04-29 07:07 12.97832 80.13738 1587 ft 184 kts 249°
2026-04-29 07:07 12.97702 80.13382 1751 ft 184 kts 249°
2026-04-29 07:08 12.97052 80.12238 2315 ft 196 kts 225°
2026-04-29 07:08 12.95839 80.11488 2739 ft 217 kts 193°
2026-04-29 07:08 12.94278 80.11552 3270 ft 240 kts 161°
2026-04-29 07:08 12.92834 80.12538 3904 ft 262 kts 130°
2026-04-29 07:09 12.92028 80.14225 4928 ft 269 kts 101°
2026-04-29 07:09 12.91975 80.16150 6048 ft 274 kts 85°
2026-04-29 07:09 12.92151 80.18117 7139 ft 278 kts 85°
2026-04-29 07:09 12.92281 80.20114 8225 ft 283 kts 88°
2026-04-29 07:10 12.92293 80.22119 9256 ft 287 kts 92°
2026-04-29 07:10 12.92206 80.24184 10287 ft 292 kts 94°
2026-04-29 07:10 12.92058 80.26341 10872 ft 315 kts 95°
2026-04-29 07:10 12.91875 80.28667 11300 ft 339 kts 96°
2026-04-29 07:11 12.91679 80.31115 12057 ft 348 kts 96°
2026-04-29 07:11 12.91481 80.33605 12991 ft 352 kts 96°
2026-04-29 07:11 12.91284 80.36131 13887 ft 357 kts 96°
2026-04-29 07:11 12.91087 80.38681 14749 ft 362 kts 96°
2026-04-29 07:12 12.90889 80.41274 15589 ft 366 kts 96°
2026-04-29 07:12 12.90690 80.43899 16401 ft 371 kts 96°
2026-04-29 07:12 12.90492 80.46527 17178 ft 376 kts 96°
2026-04-29 07:12 12.90290 80.49214 17938 ft 380 kts 96°
2026-04-29 07:13 12.90087 80.51927 18679 ft 384 kts 96°
2026-04-29 07:13 12.89882 80.54675 19401 ft 389 kts 96°
2026-04-29 07:13 12.89674 80.57453 20095 ft 393 kts 96°
2026-04-29 07:13 12.89464 80.60265 20783 ft 397 kts 96°
2026-04-29 07:14 12.89252 80.63099 21455 ft 401 kts 96°
2026-04-29 07:14 12.89038 80.65967 22102 ft 405 kts 96°
2026-04-29 07:14 12.88822 80.68858 22731 ft 409 kts 96°
2026-04-29 07:14 12.88606 80.71748 23339 ft 413 kts 96°
2026-04-29 07:15 12.88382 80.74738 23937 ft 417 kts 96°
2026-04-29 07:15 12.88163 80.77673 24517 ft 421 kts 96°
2026-04-29 07:15 12.87938 80.80686 25075 ft 424 kts 96°
2026-04-29 07:15 12.87710 80.83715 25613 ft 428 kts 96°
2026-04-29 07:16 12.87481 80.86769 26132 ft 431 kts 96°
2026-04-29 07:16 12.87251 80.89848 26632 ft 435 kts 96°
2026-04-29 07:16 12.87015 80.92968 26924 ft 444 kts 96°
2026-04-29 07:16 12.86773 80.96151 27177 ft 452 kts 96°
2026-04-29 07:17 12.86533 80.99335 27631 ft 454 kts 96°
2026-04-29 07:17 12.86285 81.02614 28113 ft 456 kts 96°
2026-04-29 07:17 12.86045 81.05791 28558 ft 457 kts 96°
2026-04-29 07:17 12.85797 81.09073 28915 ft 461 kts 96°
2026-04-29 07:18 12.85547 81.12361 29266 ft 464 kts 96°
2026-04-29 07:18 12.85296 81.15667 29617 ft 467 kts 96°
2026-04-29 07:18 12.85044 81.18994 29968 ft 469 kts 96°
2026-04-29 07:18 12.84789 81.22341 30319 ft 472 kts 96°
2026-04-29 07:19 12.84532 81.25700 30669 ft 474 kts 96°
2026-04-29 07:19 12.84273 81.29078 30981 ft 478 kts 96°
2026-04-29 07:19 12.84013 81.32483 31232 ft 477 kts 96°
2026-04-29 07:19 12.83754 81.35877 31481 ft 476 kts 96°
2026-04-29 07:20 12.83496 81.39249 31730 ft 476 kts 96°
2026-04-29 07:20 12.83236 81.42635 31980 ft 475 kts 96°
2026-04-29 07:20 12.82977 81.46018 32230 ft 475 kts 96°
2026-04-29 07:20 12.82717 81.49392 32480 ft 474 kts 96°
2026-04-29 07:21 12.82457 81.52760 32730 ft 474 kts 96°
2026-04-29 07:21 12.82198 81.56121 32978 ft 473 kts 96°
2026-04-29 07:21 12.81937 81.59488 33228 ft 473 kts 96°
2026-04-29 07:21 12.81680 81.62804 33475 ft 472 kts 96°
2026-04-29 07:22 12.81419 81.66153 33723 ft 472 kts 96°
2026-04-29 07:22 12.81158 81.69509 33973 ft 471 kts 96°
2026-04-29 07:22 12.80897 81.72847 34225 ft 471 kts 96°
2026-04-29 07:22 12.80636 81.76194 34472 ft 470 kts 96°
2026-04-29 07:23 12.80374 81.79537 34719 ft 470 kts 96°
2026-04-29 07:23 12.80113 81.82871 34970 ft 469 kts 96°
2026-04-29 07:23 12.79851 81.86203 35220 ft 469 kts 96°
2026-04-29 07:23 12.79589 81.89540 35469 ft 468 kts 96°
2026-04-29 07:24 12.79329 81.92843 35715 ft 468 kts 96°
2026-04-29 07:24 12.79066 81.96167 35965 ft 467 kts 96°
2026-04-29 07:24 12.78803 81.99484 36212 ft 467 kts 96°
2026-04-29 07:24 12.78540 82.02808 36462 ft 467 kts 96°
2026-04-29 07:25 12.78280 82.06082 36707 ft 467 kts 96°
2026-04-29 07:25 12.78018 82.09402 36956 ft 467 kts 96°
2026-04-29 07:25 12.77754 82.12718 37206 ft 467 kts 96°
2026-04-29 07:25 12.77491 82.16032 37460 ft 467 kts 96°
2026-04-29 07:26 12.77227 82.19343 37702 ft 466 kts 96°
2026-04-29 07:26 12.76963 82.22657 37942 ft 466 kts 96°
2026-04-29 07:26 12.76698 82.25965 38199 ft 465 kts 96°
2026-04-29 07:26 12.76433 82.29261 38447 ft 464 kts 96°
2026-04-29 07:27 12.76168 82.32559 38696 ft 463 kts 96°
2026-04-29 07:27 12.75904 82.35840 38936 ft 462 kts 96°
2026-04-29 07:27 12.75637 82.39137 38998 ft 466 kts 96°
2026-04-29 07:28 12.75096 82.45809 39003 ft 473 kts 96°
2026-04-29 07:28 12.74553 82.52523 39004 ft 472 kts 96°
2026-04-29 07:29 12.74011 82.59185 38992 ft 472 kts 96°
2026-04-29 07:29 12.73463 82.65900 38997 ft 472 kts 96°
2026-04-29 07:30 12.72914 82.72608 39003 ft 472 kts 96°
2026-04-29 07:30 12.72363 82.79325 39000 ft 472 kts 97°
2026-04-29 07:31 12.71538 82.89350 38995 ft 472 kts 97°
2026-04-29 07:31 12.70983 82.96070 38996 ft 472 kts 97°
2026-04-29 07:32 12.70425 83.02779 38995 ft 472 kts 97°
2026-04-29 07:32 12.69962 83.08353 39003 ft 472 kts 97°
2026-04-29 07:33 12.69401 83.15074 38996 ft 472 kts 97°
2026-04-29 07:33 12.68833 83.21861 39004 ft 472 kts 97°
2026-04-29 07:34 12.68269 83.28577 39003 ft 472 kts 97°
2026-04-29 07:34 12.67705 83.35286 38994 ft 472 kts 97°
2026-04-29 07:35 12.67142 83.41966 38994 ft 472 kts 97°
2026-04-29 07:35 12.66574 83.48672 39003 ft 472 kts 97°
2026-04-29 07:36 12.65997 83.55481 38996 ft 472 kts 97°
2026-04-29 07:36 12.65355 83.62187 39004 ft 472 kts 98°
2026-04-29 07:37 12.64665 83.68852 39004 ft 472 kts 98°
2026-04-29 07:37 12.63987 83.75546 39004 ft 472 kts 98°
2026-04-29 07:38 12.63316 83.82252 39002 ft 472 kts 98°
2026-04-29 07:38 12.62647 83.88946 39004 ft 472 kts 98°
2026-04-29 07:39 12.61983 83.95568 39004 ft 472 kts 98°
2026-04-29 07:39 12.61310 84.02286 38993 ft 472 kts 98°
2026-04-29 07:40 12.60785 84.07572 39004 ft 472 kts 98°
2026-04-29 07:40 12.60106 84.14260 38997 ft 472 kts 98°
2026-04-29 07:41 12.59425 84.20967 38995 ft 472 kts 98°
2026-04-29 07:41 12.58744 84.27631 38997 ft 472 kts 98°
2026-04-29 07:42 12.58061 84.34325 39004 ft 472 kts 98°
2026-04-29 07:42 12.57378 84.41015 38998 ft 472 kts 98°
2026-04-29 07:43 12.56688 84.47757 39004 ft 472 kts 98°
2026-04-29 07:43 12.56005 84.54415 39004 ft 472 kts 98°
2026-04-29 07:44 12.55343 84.60857 38994 ft 472 kts 98°
2026-04-29 07:44 12.54811 84.66129 39005 ft 472 kts 98°
2026-04-29 07:45 12.54118 84.72817 38993 ft 472 kts 98°
2026-04-29 07:45 12.53431 84.79528 38999 ft 473 kts 98°
2026-04-29 07:46 12.52735 84.86215 39000 ft 472 kts 98°
2026-04-29 07:46 12.52030 84.92907 39000 ft 472 kts 98°
2026-04-29 07:47 12.51326 84.99590 39004 ft 472 kts 98°
2026-04-29 07:47 12.50625 85.06296 39004 ft 472 kts 98°
2026-04-29 07:48 12.49926 85.12969 39000 ft 472 kts 98°
2026-04-29 07:48 12.49220 85.19648 38994 ft 472 kts 98°
2026-04-29 07:49 12.48513 85.26352 38995 ft 472 kts 98°
2026-04-29 07:49 12.47805 85.33051 38997 ft 472 kts 98°
2026-04-29 07:50 12.47100 85.39708 38997 ft 472 kts 98°
2026-04-29 07:50 12.46391 85.46397 39004 ft 472 kts 98°
2026-04-29 07:51 12.45683 85.53043 38998 ft 472 kts 98°
2026-04-29 07:51 12.44969 85.59750 38996 ft 472 kts 98°
2026-04-29 07:52 12.44253 85.66441 39004 ft 472 kts 98°
2026-04-29 07:52 12.43537 85.73127 39001 ft 472 kts 98°
2026-04-29 07:53 12.42817 85.79817 39004 ft 472 kts 98°
2026-04-29 07:53 12.42096 85.86511 39002 ft 472 kts 98°
2026-04-29 07:54 12.41380 85.93150 39004 ft 472 kts 98°
2026-04-29 07:54 12.40656 85.99847 39000 ft 472 kts 98°
2026-04-29 07:55 12.39930 86.06545 38994 ft 472 kts 98°
2026-04-29 07:55 12.39203 86.13236 38998 ft 472 kts 98°
2026-04-29 07:56 12.38477 86.19902 38998 ft 472 kts 98°
2026-04-29 07:56 12.37747 86.26594 39000 ft 472 kts 98°
2026-04-29 07:57 12.37031 86.33281 39009 ft 473 kts 98°
2026-04-29 07:57 12.36302 86.39970 39000 ft 472 kts 98°
2026-04-29 07:58 12.35566 86.46652 39002 ft 473 kts 98°
2026-04-29 07:58 12.34814 86.53344 39003 ft 472 kts 98°
2026-04-29 07:59 12.34076 86.59956 39005 ft 472 kts 98°
2026-04-29 07:59 12.33351 86.66660 38996 ft 472 kts 98°
2026-04-29 08:00 12.32720 86.72272 39004 ft 472 kts 98°
2026-04-29 08:00 12.31969 86.78957 39001 ft 472 kts 98°
2026-04-29 08:01 12.31598 86.82293 37483 ft 472 kts 98°
2026-04-29 08:01 12.31230 86.85623 37875 ft 469 kts 99°
2026-04-29 08:01 12.30864 86.88931 38272 ft 465 kts 99°
2026-04-29 08:01 12.30503 86.92181 38652 ft 462 kts 99°
2026-04-29 08:02 12.30132 86.95512 38820 ft 463 kts 99°
2026-04-29 08:02 12.29766 86.98762 38832 ft 468 kts 99°
2026-04-29 08:02 12.29143 87.04331 38827 ft 477 kts 99°
2026-04-29 08:03 12.28390 87.11131 38827 ft 487 kts 98°
2026-04-29 08:03 12.27605 87.18100 38824 ft 493 kts 99°
2026-04-29 08:04 12.26797 87.25024 38825 ft 493 kts 99°
2026-04-29 08:04 12.25993 87.32039 38829 ft 493 kts 99°
2026-04-29 08:05 12.25202 87.39012 38831 ft 494 kts 99°
2026-04-29 08:05 12.24416 87.45944 38830 ft 494 kts 98°
2026-04-29 08:06 12.23620 87.52945 38844 ft 496 kts 98°
2026-04-29 08:06 12.22822 87.59947 38844 ft 495 kts 98°
2026-04-29 08:07 12.22026 87.66951 38841 ft 496 kts 98°
2026-04-29 08:07 12.21223 87.73960 38840 ft 496 kts 98°
2026-04-29 08:08 12.20424 87.80920 38838 ft 496 kts 98°
2026-04-29 08:08 12.19617 87.87934 38840 ft 496 kts 98°
2026-04-29 08:09 12.18808 87.94947 38841 ft 496 kts 98°
2026-04-29 08:09 12.17997 88.01972 38841 ft 497 kts 98°
2026-04-29 08:10 12.17189 88.08940 38839 ft 497 kts 98°
2026-04-29 08:10 12.16374 88.15960 38842 ft 497 kts 98°
2026-04-29 08:11 12.15555 88.22997 38842 ft 497 kts 98°
2026-04-29 08:11 12.14740 88.29978 38841 ft 497 kts 98°
2026-04-29 08:12 12.13919 88.37005 38844 ft 497 kts 98°
2026-04-29 08:12 12.13096 88.44030 38843 ft 497 kts 98°
2026-04-29 08:13 12.12276 88.51013 38844 ft 497 kts 98°
2026-04-29 08:13 12.11451 88.58033 38843 ft 497 kts 98°
2026-04-29 08:14 12.10628 88.65024 38844 ft 497 kts 98°
2026-04-29 08:14 12.09824 88.72067 38843 ft 497 kts 97°
2026-04-29 08:15 12.09205 88.79078 38845 ft 497 kts 96°
2026-04-29 08:15 12.08616 88.86120 38844 ft 497 kts 96°
2026-04-29 08:16 12.08004 88.93190 38841 ft 497 kts 96°
2026-04-29 08:16 12.07386 89.00189 38843 ft 498 kts 96°
2026-04-29 08:17 12.06758 89.07245 38843 ft 498 kts 96°
2026-04-29 08:17 12.06128 89.14300 38843 ft 498 kts 96°
2026-04-29 08:18 12.05499 89.21325 38842 ft 498 kts 96°
2026-04-29 08:18 12.04865 89.28390 38843 ft 498 kts 96°
2026-04-29 08:19 12.04233 89.35403 38843 ft 498 kts 96°
2026-04-29 08:19 12.03594 89.42479 38843 ft 498 kts 96°
2026-04-29 08:20 12.02958 89.49495 38842 ft 499 kts 96°
2026-04-29 08:20 12.02316 89.56560 38842 ft 499 kts 96°
2026-04-29 08:21 12.01672 89.63623 38844 ft 499 kts 96°
2026-04-29 08:21 12.01027 89.70689 38846 ft 498 kts 97°
2026-04-29 08:22 12.00384 89.77709 38843 ft 498 kts 97°
2026-04-29 08:22 11.99735 89.84769 38844 ft 498 kts 97°
2026-04-29 08:23 11.99090 89.91769 38844 ft 498 kts 97°
2026-04-29 08:23 11.98438 89.98823 38844 ft 498 kts 97°
2026-04-29 08:24 11.97784 90.05882 38846 ft 498 kts 97°
2026-04-29 08:24 11.97133 90.12881 38846 ft 497 kts 97°
2026-04-29 08:25 11.96476 90.19931 38846 ft 497 kts 97°
2026-04-29 08:25 11.95817 90.26970 38845 ft 497 kts 97°
2026-04-29 08:26 11.95161 90.33976 38842 ft 497 kts 97°
2026-04-29 08:26 11.94499 90.41015 38847 ft 497 kts 97°
2026-04-29 08:27 11.93838 90.48020 38846 ft 497 kts 97°
2026-04-29 08:27 11.93166 90.55155 38844 ft 497 kts 97°
2026-04-29 08:28 11.92502 90.62152 38847 ft 498 kts 97°
2026-04-29 08:28 11.91832 90.69194 38846 ft 498 kts 97°
2026-04-29 08:29 11.91162 90.76219 38593 ft 493 kts 97°
2026-04-29 08:29 11.90830 90.79671 37644 ft 493 kts 97°
2026-04-29 08:29 11.90496 90.83161 36496 ft 494 kts 97°
2026-04-29 08:30 11.90161 90.86671 35287 ft 497 kts 98°
2026-04-29 08:30 11.89485 90.93748 32764 ft 501 kts 98°
2026-04-29 08:30 11.89151 90.97248 31500 ft 501 kts 98°
2026-04-29 08:31 11.88813 91.00777 30545 ft 494 kts 98°
2026-04-29 08:31 11.88484 91.04232 29917 ft 480 kts 98°
2026-04-29 08:31 11.88164 91.07589 29482 ft 473 kts 98°
2026-04-29 08:31 11.87837 91.10941 28958 ft 473 kts 98°
2026-04-29 08:32 11.87513 91.14264 28366 ft 466 kts 98°
2026-04-29 08:32 11.87201 91.17473 27782 ft 454 kts 98°
2026-04-29 08:32 11.86891 91.20658 27207 ft 441 kts 98°
2026-04-29 08:32 11.86594 91.23725 26653 ft 428 kts 98°
2026-04-29 08:33 11.86304 91.26705 26113 ft 418 kts 98°
2026-04-29 08:33 11.85886 91.29660 25670 ft 420 kts 104°
2026-04-29 08:33 11.85158 91.32523 24997 ft 421 kts 110°
2026-04-29 08:33 11.84226 91.35336 24454 ft 415 kts 111°
2026-04-29 08:34 11.83299 91.38107 23958 ft 407 kts 110°
2026-04-29 08:34 11.82399 91.40849 23412 ft 406 kts 110°
2026-04-29 08:34 11.81521 91.43584 22820 ft 402 kts 109°
2026-04-29 08:34 11.80681 91.46251 22323 ft 397 kts 109°
2026-04-29 08:35 11.79847 91.48927 21794 ft 392 kts 108°
2026-04-29 08:35 11.79029 91.51561 21280 ft 388 kts 108°
2026-04-29 08:35 11.78216 91.54186 20765 ft 385 kts 108°
2026-04-29 08:35 11.77409 91.56787 20253 ft 382 kts 108°
2026-04-29 08:36 11.76609 91.59360 19695 ft 380 kts 108°
2026-04-29 08:36 11.75811 91.61921 19217 ft 376 kts 108°
2026-04-29 08:36 11.75027 91.64434 18717 ft 374 kts 108°
2026-04-29 08:36 11.74235 91.66970 18193 ft 373 kts 107°
2026-04-29 08:37 11.73447 91.69488 17676 ft 369 kts 107°
2026-04-29 08:37 11.72670 91.71973 17253 ft 366 kts 107°
2026-04-29 08:37 11.71888 91.74473 16974 ft 369 kts 107°
2026-04-29 08:37 11.71125 91.76912 16706 ft 361 kts 107°
2026-04-29 08:38 11.70360 91.79354 16109 ft 363 kts 107°
2026-04-29 08:38 11.69581 91.81841 15257 ft 371 kts 107°
2026-04-29 08:38 11.68790 91.84365 14621 ft 372 kts 107°
2026-04-29 08:38 11.68270 91.86019 14325 ft 368 kts 107°
2026-04-29 08:39 11.67495 91.88485 13819 ft 364 kts 107°
2026-04-29 08:39 11.66720 91.90947 13261 ft 361 kts 107°
2026-04-29 08:39 11.65717 91.94138 12662 ft 353 kts 107°
2026-04-29 08:39 11.65211 91.95746 12332 ft 350 kts 107°
2026-04-29 08:40 11.64235 91.98849 11703 ft 344 kts 107°
2026-04-29 08:40 11.63509 92.01159 11236 ft 340 kts 107°
2026-04-29 08:40 11.63023 92.02704 10922 ft 337 kts 107°
2026-04-29 08:40 11.62309 92.04970 10457 ft 334 kts 107°
2026-04-29 08:41 11.61609 92.07192 10196 ft 324 kts 107°
2026-04-29 08:41 11.60933 92.09333 10074 ft 310 kts 107°
2026-04-29 08:41 11.60283 92.11391 9821 ft 302 kts 107°
2026-04-29 08:41 11.59645 92.13410 9539 ft 295 kts 107°
2026-04-29 08:42 11.59017 92.15394 9416 ft 294 kts 107°
2026-04-29 08:42 11.58385 92.17395 9169 ft 299 kts 107°
2026-04-29 08:42 11.57755 92.19387 8822 ft 298 kts 107°
2026-04-29 08:42 11.57122 92.21388 8470 ft 295 kts 107°
2026-04-29 08:43 11.56494 92.23372 8125 ft 290 kts 107°
2026-04-29 08:43 11.55879 92.25315 7779 ft 286 kts 107°
2026-04-29 08:43 11.55271 92.27237 7432 ft 283 kts 107°
2026-04-29 08:43 11.54669 92.29136 7094 ft 279 kts 107°
2026-04-29 08:44 11.54076 92.31005 6766 ft 276 kts 107°
2026-04-29 08:44 11.53494 92.32839 6442 ft 273 kts 107°
2026-04-29 08:44 11.52977 92.34466 6144 ft 270 kts 107°
2026-04-29 08:44 11.52401 92.36284 5810 ft 267 kts 107°
2026-04-29 08:45 11.51832 92.38074 5488 ft 264 kts 107°
2026-04-29 08:45 11.51269 92.39848 5172 ft 261 kts 107°
2026-04-29 08:45 11.50712 92.41599 4858 ft 258 kts 107°
2026-04-29 08:45 11.50160 92.43335 4542 ft 256 kts 107°
2026-04-29 08:46 11.49613 92.45058 4235 ft 253 kts 107°
2026-04-29 08:46 11.49073 92.46758 4062 ft 259 kts 108°
2026-04-29 08:46 11.48522 92.48490 4008 ft 252 kts 108°
2026-04-29 08:46 11.47992 92.50157 3933 ft 242 kts 108°
2026-04-29 08:47 11.47479 92.51771 3724 ft 237 kts 108°
2026-04-29 08:47 11.46969 92.53373 3450 ft 236 kts 108°
2026-04-29 08:47 11.46463 92.54964 3171 ft 235 kts 108°
2026-04-29 08:47 11.45959 92.56555 2898 ft 234 kts 105°
2026-04-29 08:48 11.45913 92.58150 2710 ft 230 kts 73°
2026-04-29 08:48 11.46703 92.59592 2682 ft 237 kts 49°
2026-04-29 08:48 11.47881 92.60721 2683 ft 225 kts 39°
2026-04-29 08:48 11.49070 92.61639 2687 ft 209 kts 37°
2026-04-29 08:49 11.50267 92.62539 2685 ft 213 kts 37°
2026-04-29 08:49 11.51474 92.63448 2690 ft 213 kts 37°
2026-04-29 08:49 11.52618 92.64307 2567 ft 201 kts 37°
2026-04-29 08:49 11.53727 92.65141 2308 ft 193 kts 37°
2026-04-29 08:50 11.54790 92.65939 2070 ft 187 kts 37°
2026-04-29 08:50 11.55811 92.66705 1833 ft 178 kts 38°
2026-04-29 08:50 11.56790 92.67439 1605 ft 170 kts 38°
2026-04-29 08:50 11.57702 92.68123 1406 ft 153 kts 38°
2026-04-29 08:51 11.58521 92.68740 1214 ft 147 kts 38°
2026-04-29 08:51 11.59348 92.69364 1025 ft 147 kts 38°
2026-04-29 08:51 11.60170 92.69981 840 ft 146 kts 39°
2026-04-29 08:51 11.60981 92.70588 671 ft 144 kts 38°
2026-04-29 08:52 11.61778 92.71185 482 ft 143 kts 40°
2026-04-29 08:52 11.62572 92.71797 194 ft 141 kts 38°
2026-04-29 08:52 11.63335 92.72389 41 ft 135 kts 39°
2026-04-29 08:52 11.63968 92.72858 43 ft 87 kts 36°
2026-04-29 08:53 11.64345 92.73146 40 ft 55 kts 28°
2026-04-29 08:53 11.64603 92.73327 42 ft 19 kts 36°
2026-04-29 08:53 11.64688 92.73308 42 ft 10 kts 311°
2026-04-29 08:53 11.64737 92.73285 42 ft 7 kts 18°
2026-04-29 08:54 11.64757 92.73291 42 ft 3 kts 18°
2026-04-29 08:54 11.64787 92.73299 42 ft 0 kts 10°
2026-04-29 08:54 11.64807 92.73301 42 ft 5 kts 358°
2026-04-29 08:54 11.64820 92.73302 42 ft 0 kts
2026-04-29 08:55 11.64833 92.73302 41 ft 1 kts
2026-04-29 08:55 11.64839 92.73302 42 ft 0 kts
2026-04-29 08:55 11.64842 92.73302 42 ft 0 kts